Huvudsida
METAR-TAF:

METAR-TAF

Flygplatser :

Qazvin Airport

Qazvin, Iran

latitud: 36-15N, longitud: 050-00E, höjd: 1278 m

Aktuellt väderrapport

Denna rapport gjordes för 34 minuter sedan, klockan 01:00 UTC
Vind 2 kt från väst/nordväst
Temperatur 18°C
Fuktighet 68%
Tryck 1015 hPa
Sikt 10 km eller mer
Inga moln under 1 500 m eller inga cumulonimbus

METAR: OIIK 220100Z 30002KT CAVOK 18/12 Q1015

Tid: 06:04 (01:34 UTC)


TAF: saknas

Aktuella väderrapporter och prognoser från 4000 flygplatser (METAR- och TAF-rapporter).

De tillgängliga stationerna syns som gula och röda prickar på kartan.

För musen över prickarna för att se namnen på stationerna.

Klicka sedan för att få väderrapporter och prognoser.

För att ändra kartan: Klicka på de gröna knapparna med ett svart kors på för att zooma in; den gröna knappen med ett streck på för att zooma ut; eller på de gröna pilarna för angränsande kartor.


METAR-TAF: